Volver al catálogo

COSMOS 520

LostMilitarHEO
NORAD 6192·PAYLOAD·🇷🇺 Russia

Lanzado Sep 19, 1972 desde Plesetsk Cosmodrome

Loading…

Próximos Pases (próximas 24 horas)

TLE

ObsoletoSource: Space-Track

Época: Sep 18, 2025, 17:17 UTC

1  6192U 72072A   25261.72048154  .00000024  00000-0  00000+0 0  9998
2  6192  71.7596 235.5632 4871314 193.2966 142.1440  2.01349278389715

Sigue COSMOS 520 en tiempo real con AllMySat

Download on the App Store